Regional Weather Roundup
Issued by NWS

Home | Current Version | Previous Version | Graphics & Text | Print | Product List | Glossary On
Versions: 1 2 3 4 5 6 7 8 9 10 11 12 13 14 15 16 17 18 19 20 21 22 23 24 25 26 27
000
ASUS45 KBOU 290907
RWRCO

WEATHER ROUNDUP FOR COLORADO
NATIONAL WEATHER SERVICE DENVER/BOULDER CO
300 AM MDT FRI JUL 29 2016

NOTE: "FAIR" INDICATES FEW OR NO CLOUDS BELOW 12000 FEET WITH NO
SIGNIFICANT WEATHER AND/OR OBSTRUCTIONS TO VISIBILITY.

COZ001>005-013-030-031-291000-
...NORTHWEST COLORADO...

CITY           SKY/WX    TMP DP  RH WIND       PRES   REMARKS
CRAIG          FAIR      51  39  63 SE5       30.19S
HAYDEN         FAIR      57  32  38 E9        30.20S
MEEKER         FAIR      54  39  57 CALM      30.22S
MOUNT WERNER   NOT AVBL
STEAMBOAT SPGS FAIR      53  36  51 CALM      30.24R
WALDEN         FAIR      43  36  75 SE6       30.36S
$$

COZ006>008-011-291000-
...WEST CENTRAL VALLEYS...

CITY           SKY/WX    TMP DP  RH WIND       PRES   REMARKS
GRAND JUNCTION FAIR      72  29  20 NE7       30.04S
MONTROSE       FAIR      64  37  36 SE7       30.14R
EAGLE          FAIR      57  34  41 CALM      30.25S
RIFLE          FAIR      60  41  49 NE5       30.13F
DELTA          NOT AVBL
NUCLA          NOT AVBL
$$

COZ017>023-064>068-291000-
...SOUTHWEST COLORADO...

CITY           SKY/WX    TMP DP  RH WIND       PRES   REMARKS
DURANGO        FAIR      60  38  43 NW6       30.23S
CORTEZ         FAIR      63  39  41 E3        30.15S
PAGOSA SPRINGS FAIR      55  37  51 CALM      30.33S
TELLURIDE      FAIR      57  32  38 SE7       30.45S
WOLF CREEK PAS FAIR      52  34  50 SW14      30.69S
$$

COZ009-010-012-014-032>034-037-058>063-291000-
...CENTRAL COLORADO...

CITY           SKY/WX    TMP DP  RH WIND       PRES   REMARKS
ASPEN          FAIR      51  35  54 CALM      30.31S
BUENA VISTA    CLOUDY    59  46  63 SE3       30.38S
COPPER MTN     FAIR      55  25  30 W10       30.64F
BERTHOUD PASS  HAZE      41  28  60 CALM      30.67F VSB 1/4
COTTONWOOD PAS FAIR      57  46  67 E7        30.50F
GUNNISON       FAIR      54  34  47 N6        30.35S
KREMMLING      FAIR      46  34  61 CALM      30.31S
LEADVILLE      FAIR      48  31  51 E6        30.48F
MONARCH PASS   FAIR      52  32  46 SE6       30.74F
SALIDA         FAIR      63  55  75 E3        30.42S
SUNLIGHT       NOT AVBL
WILKERSON PASS CLOUDY    50  46  87 CALM      30.63F FOG
$$

COZ069>075-291000-
...SAN LUIS VALLEY/SANGRE DE CRISTO MOUNTAINS...

CITY           SKY/WX    TMP DP  RH WIND       PRES   REMARKS
ALAMOSA        FAIR      58  45  62 CALM      30.30R
LA VETA PASS   FAIR      48  43  81 NE6       30.52S
SAGUACHE       FAIR      55  32  41 NW7       30.34S
$$

COZ035-036-038>040-291000-
...NORTHERN COLORADO FRONT RANGE...

CITY           SKY/WX    TMP DP  RH WIND       PRES   REMARKS
DENVER INTL AP FAIR      62  57  83 SE9       30.21F
DMNS CITY PARK   N/A     65  58  78 SE2       30.20F
AURORA         MOCLDY    61  58  89 SE12      30.23F
FRONT RANGE AP NOT AVBL
ERIE MUNI ARPT CLOUDY    68  59  73 CALM      30.20F
BOULDER MUN AP NOT AVBL
CENTENNIAL     FAIR      63  57  81 SE10      30.23F
BROOMFIELD     FAIR      66  57  72 CALM      30.24F
LONGMONT       NOT AVBL
$$

COZ041-046-047-076>085-087-088-291000-
...PIKES PEAK/PALMER DIVIDE AND SOUTHERN FOOTHILLS...

CITY           SKY/WX    TMP DP  RH WIND       PRES   REMARKS
COLO. SPRINGS  MOCLDY    60  58  92 N5        30.29F
A. F. ACADEMY  FAIR      61  58  91 E2        30.29F
SCHRIEVER AFB  NOT AVBL
ELLICOTT       NOT AVBL
FALCON         NOT AVBL
FORT CARSON    FAIR      61  58  89 W3        30.25F
LIMON          FAIR      61  56  83 E5        30.23F
MONUMENT HILL  FAIR      55  54  94 S5        30.33F
TRINIDAD       NOT AVBL
$$

COZ042>045-048>051-090-091-291000-
...NORTHEAST COLORADO...

CITY           SKY/WX    TMP DP  RH WIND       PRES   REMARKS
GREELEY ARPT   CLOUDY    64  61  88 NE5       30.20F
AKRON          LGT RAIN  62  59  90 S16       30.17F
BURLINGTON     CLOUDY    63  59  87 CALM      30.17F
WRAY           CLOUDY   N/A N/A N/A CALM      30.15F
STERLING       NOT AVBL
HOLYOKE        NOT AVBL
FORT MORGAN    NOT AVBL
$$

COZ086-089-092>099-291000-
...SOUTHEAST COLORADO...

CITY           SKY/WX    TMP DP  RH WIND       PRES   REMARKS
PUEBLO         FAIR      65  61  87 NW3       30.19F
LA JUNTA       FAIR      67  60  78 W12       30.14R
LAMAR          FAIR      66  60  81 E16       30.05F
SPRINGFIELD      N/A     62  58  86 NE7       30.13F
$$




USA.gov is the U.S. government's official web portal to all federal, state and local government web resources and services.